User: anonymous   Login
Location: Bishopstone
(51.0167°N, 1.9000°W)
Time: 01:02:38
(UTC+00:00)
Language:

Meteor 1-24 Rocket - Orbit

View from above orbital plane
View from above orbital plane
View from above satellite
View from above satellite

Ground track
Ground track

The orbit data is extracted from the following two-line orbital elements,

1  8800U 76032B   19322.81327805  .00000051  00000-0  20774-4 0  9995
2  8800  81.2517  76.7138 0094735 200.5806 159.1540 14.10135955242853
Epoch (UTC): 18 November 2019 19:31:07
Eccentricity: 0.0094735
inclination: 81.2517°
perigee height: 790 km
apogee height: 927 km
right ascension of ascending node: 76.7138°
argument of perigee: 200.5806°
revolutions per day: 14.10135955
mean anomaly at epoch: 159.1540°
orbit number at epoch: 24285

The dashed part of the orbit path shows where the satellite is in the earth's shadow,  

DLR